Preview of NWS' New Version of Forecast
This preview is not operational and should not be used for support decisions.

Regional Weather Roundup (RWR)

Issued by National Weather Service (NWS)

                            
000
ASUS44 KMEG 251500
RWRTN 
TENNESSEE HOURLY STATE WEATHER ROUNDUP
NATIONAL WEATHER SERVICE MEMPHIS TN
1000 AM CDT SUN AUG 25 2019

TNZ002-004-019-021-049-052-054-088>092-251600-
WEST TENNESSEE
  
CITY           SKY/WX    TMP DP  RH WIND       PRES   REMARKS
MEMPHIS INTL   PTSUNNY   78  74  87 SE3       29.96S                  
NWS MEMPHIS      N/A     77 N/A N/A MISG        N/A                   
JACKSON        FAIR      79  74  84 VRB5      29.99S                  
DYERSBURG      FAIR      79  74  84 VRB3      29.98F                  
$$

TNZ008-025-027-028-033-062-065-066-251600-
NORTH MIDDLE TENNESSEE
  
CITY           SKY/WX    TMP DP  RH WIND       PRES   REMARKS
NASHVILLE      CLOUDY    79  70  74 S9        30.03S                  
CLARKSVILLE    LGT RAIN  73  66  78 E3        30.01F                  
SMYRNA         CLOUDY    78  72  81 S8        30.04S                  
CROSSVILLE     CLOUDY    69  66  90 S6        30.12S                  
$$

TNZ061-075-076-078-094-096-097-251600-
SOUTH MIDDLE TENNESSEE
  
CITY           SKY/WX    TMP DP  RH WIND       PRES   REMARKS
$$

TNZ017-018-042-046-047-251600-
NORTHEAST TENNESSEE
  
CITY           SKY/WX    TMP DP  RH WIND       PRES   REMARKS
TRI CITIES     CLOUDY    69  58  67 VRB3      30.16S                  
$$

TNZ012-013-036-069-073-074-251600-
CENTRAL EAST TENNESSEE
  
CITY           SKY/WX    TMP DP  RH WIND       PRES   REMARKS
KNOXVILLE      CLOUDY    73  63  70 NE5       30.10R                  
OAK RIDGE      CLOUDY    73  63  70 VRB5      30.12R                  
$$

TNZ083-085-099-251600-
SOUTHEAST TENNESSEE
  
CITY           SKY/WX    TMP DP  RH WIND       PRES   REMARKS
CHATTANOOGA    DRIZZLE   71  67  87 SW6       30.11R                  
$$

SKY/WX REPORTED AS FAIR MEANS FEW OR NO CLOUDS BELOW
12 THOUSAND FEET.